www.pogodaiklimat.ru

Погода и климат >> Архив погоды >> Хорватия >> Огулин


ПОГОДА в Огулине

  • Прогноз погоды в Огулине
  • Монитор погоды в Огулине

АРХИВ ПОГОДЫ в Огулине

Время (UTC), дата Ветер
(напр.,м/с)
 
Видим.   Явления Облачность Т
(С)
Тd
(С)
f
(%)
Тe
(С)
Тes
(С)
Комфортность P
(гПа)
Po
(гПа)
Тmin
(С)
Tmax
(С)
R
(мм)
R24
(мм)
S
(см)
07 15.08 СЗ 2 15 км ясно +15.1 +13.3 89 +15 +21 1018.1 979.6
08 15.08 В 1 20 км 1/1 1000 м
[Cu hum]
+19.4 +11.1 59 +22 +31 комфорт 1017.3 979.4
09 15.08 ЮВ 1 20 км 1/1 1000 м
[Cu med, cong Ci fib]
+20.7 +11.2 54 +24 +37 комфорт 1017.0 979.3
10 15.08 З 1 20 км 3/3 1000 м
[Cu med, cong Ci fib]
+21.4 +11.6 54 +23 +36 комфорт 1016.5 978.9
11 15.08 С 1 20 км 3/3 1000 м
[Cu med, cong Ci fib]
+21.6 +12.3 55 +24 +37 комфорт 1016.4 978.8
12 15.08 С 1 20 км 1/1 1000 м
[Cu med, cong Ci fib]
+23.1 +11.4 48 +25 +41 комфорт 1015.2 977.8
13 15.08 ЮЗ 1 20 км 1/1 1000 м
[Cu med, cong Ac trans Ci fib]
+22.5 +9.6 44 +24 +37 комфорт 1015.0 977.5
14 15.08 СВ 2 н/о н/о +24.1 +10.1 41 +25 +25 комфорт 1014.8 977.4
15 15.08 В 2 н/о н/о +24.3 +11.3 44 +26 +26 жарко 1014.4 977.0
16 15.08 В 1 н/о н/о +22.4 +10.3 46 +24 +24 комфорт 1014.5 976.9
17 15.08 ЮВ 2 н/о н/о +21.7 +10.6 49 +23 +23 комфорт 1014.5 976.8
18 15.08 СЗ 1 20 км ясно +20.3 +13.3 64 +24 +24 комфорт 1014.7 977.0 +24.0
19 15.08 СЗ 1 20 км ясно +16.4 +12.7 79 +17 +17 1015.5 977.3
20 15.08 СЗ 1 20 км ясно +14.9 +12.9 88 +15 +15 1016.3 977.9
21 15.08 З 1 н/о н/о +13.5 +12.1 91 +14 +14 1017.1 978.2
00 16.08 СЗ 1 н/о н/о +12.4 +11.4 94 +12 +12 1017.4 978.4
03 16.08 З 2 н/о н/о +13.1 +10.9 86 +12 +12 1017.4 978.5
04 16.08 З 1 н/о н/о +12.9 +10.7 86 +13 +13 1017.7 978.7
05 16.08 ЮЗ 1 н/о н/о +13.1 +11.6 91 +13 +13 1017.8 978.8
06 16.08 штиль 0 15 км 9/3 1000 м
[Sc Ac As]
+13.2 +11.7 91 +13 +13 1018.5 979.5 +11.9
07 16.08 СВ 1 15 км 9/4 1000 м
[Sc Ac As]
+15.7 +13.0 84 +16 +18 1018.5 980.1
08 16.08 СЗ 4 15 км 9/3 1000 м
[Sc Ac As]
+18.0 +12.7 71 +18 +20 1018.8 980.7
09 16.08 СЗ 3 15 км 9/5 1000 м
[Cu Sc Ac trans]
+19.9 +13.1 65 +22 +25 комфорт 1018.4 980.5
10 16.08 СВ 2 15 км 8/6 1000 м
[Cu Sc Ac trans]
+20.7 +12.5 59 +24 +28 комфорт 1018.5 980.7
11 16.08 СВ 2 20 км 8/6 1000 м
[Cu Sc Ac trans]
+21.0 +12.9 60 +24 +29 комфорт 1018.4 980.7
12 16.08 С 1 20 км 8/5 1000 м
[Cu Sc Ac und]
+20.6 +13.1 62 +24 +29 комфорт 1018.3 980.5
13 16.08 СВ 1 20 км 5/4 1000 м
[Cu med, cong Ac trans]
+21.6 +13.0 58 +24 +32 комфорт 1017.6 980.0
14 16.08 СВ 2 н/о н/о +21.9 +13.9 60 +25 +25 комфорт 1017.4 979.6
15 16.08 СЗ 1 н/о н/о +22.4 +11.5 50 +25 +25 комфорт 1017.1 979.4
16 16.08 В 1 н/о н/о +22.3 +12.6 54 +25 +25 комфорт 1016.8 979.1
17 16.08 С 1 н/о н/о +21.8 +13.0 57 +24 +24 комфорт 1016.9 979.1
18 16.08 СЗ 1 20 км 1/0
[Ci fib]
+19.7 +13.7 68 +23 +23 комфорт 1017.2 979.4 +22.5
19 16.08 СЗ 1 15 км 1/0
[Ci fib]
+16.6 +13.1 80 +17 +17 1018.3 980.0
20 16.08 СЗ 1 20 км 1/0
[Ci fib]
+15.0 +13.3 90 +15 +15 1018.8 980.3
21 16.08 СЗ 2 н/о н/о +14.1 +12.7 91 +14 +14 1019.5 980.6
00 17.08 СЗ 1 н/о н/о +12.2 +11.2 94 +12 +12 1019.4 980.3
03 17.08 СЗ 1 н/о н/о +11.2 +9.9 92 +11 +11 1019.0 979.7
04 17.08 СЗ 1 н/о н/о +10.4 +9.5 94 +10 +10 1019.3 979.9
05 17.08 СЗ 1 н/о н/о +11.2 +9.7 90 +11 +11 1019.3 980.0
06 17.08 СЗ 1 20 км 1/0
[Ci fib]
+13.3 +10.7 84 +13 +16 1018.8 980.0 +10.3
07 17.08 З 1 20 км 3/0
[Ci]
+17.1 +12.1 72 +18 +24 1018.5 980.3
08 17.08 ЮВ 1 20 км 8/0
[Cs]
+20.8 +12.8 60 +24 +33 комфорт 1017.8 980.1
09 17.08 Ю 1 20 км 8/0
[Cs]
+21.7 +13.7 60 +24 +37 комфорт 1017.4 979.8
10 17.08 В 1 20 км 8/0
[Cs]
+22.8 +14.3 59 +26 +41 жарко 1017.0 979.6
11 17.08 В 1 20 км 6/1 1000 м
[Cu hum Cs]
+24.4 +16.1 60 +28 +42 душно 1016.4 979.2
12 17.08 В 2 20 км 3/1 1000 м
[Cu med, cong Cs]
+25.4 +16.3 57 +29 +41 душно 1015.6 978.6
13 17.08 В 1 20 км 3/1 1000 м
[Cu med, cong Ci fib]
+25.8 +16.2 55 +29 +42 душно 1015.3 978.3
14 17.08 СВ 2 н/о н/о +26.5 +15.6 51 +30 +30 душно 1015.3 978.1
15 17.08 В 1 н/о н/о +26.6 +15.1 49 +29 +29 жарко 1014.8 977.7
16 17.08 Ю 2 н/о н/о +26.4 +12.2 41 +28 +28 жарко 1014.7 977.5
17 17.08 ЮЗ 2 н/о н/о +25.2 +17.2 61 +29 +29 душно 1014.8 977.5
18 17.08 СЗ 3 20 км 5/0
[Cs]
+22.5 +13.9 58 +26 +26 жарко 1015.2 977.8 +26.6
19 17.08 СЗ 1 20 км 3/0
[Ci fib]
+20.4 +15.2 72 +24 +24 комфорт 1015.8 978.1
20 17.08 СЗ 1 20 км 3/0
[Ci fib]
+17.8 +15.7 88 +19 +19 1016.1 978.1
21 17.08 штиль 0 н/о н/о +16.6 +14.8 89 +16 +16 1016.6 978.1
00 18.08 СЗ 2 н/о н/о +14.9 +13.5 91 +15 +15 1016.8 978.1
03 18.08 СЗ 2 н/о н/о +14.2 +12.3 88 +14 +14 1016.5 977.7
04 18.08 СЗ 2 н/о н/о +13.7 +12.2 91 +13 +13 1016.2 977.4
05 18.08 СЗ 2 н/о н/о +14.4 +12.2 87 +14 +14 1016.5 977.8
06 18.08 СЗ 1 20 км 1/0
[Ci fib]
+17.8 +13.4 75 +19 +22 1015.9 977.9 +13.5
07 18.08 штиль 0 20 км 1/0
[Ci fib]
+21.4 +13.0 59 +24 +31 комфорт 1015.5 977.9
08 18.08 СВ 1 20 км 1/0
[Ci fib]
+24.9 +14.1 51 +27 +38 жарко 1015.1 978.0
09 18.08 ЮЗ 2 20 км 1/0
[Ci fib]
+27.1 +15.7 50 +30 +42 душно 1014.7 977.9
10 18.08 Ю 1 20 км ясно +28.6 +16.4 48 +32 +49 душно 1014.2 977.6
11 18.08 СВ 2 20 км ясно +28.8 +17.0 49 +33 +48 очень
душно
1014.0 977.4
12 18.08 Ю 2 20 км ясно +29.7 +17.1 47 +34 +48 очень
душно
1013.6 977.2
13 18.08 ЮЗ 4 20 км 1/1 1000 м
[Cu hum]
+29.7 +18.5 51 +35 +42 очень
душно
1013.6 977.2
14 18.08 ЮЗ 4 н/о н/о +30.1 +17.3 46 +34 +34 очень
душно
1013.9 977.2
15 18.08 ЮЗ 5 н/о н/о +29.1 +15.3 43 +32 +32 душно 1014.1 977.3
16 18.08 ЮЗ 4 н/о н/о +28.4 +16.1 47 +32 +32 душно 1014.0 977.1
17 18.08 ЮЗ 4 н/о н/о +26.8 +14.3 46 +29 +29 жарко 1014.1 977.0
18 18.08 С 1 20 км 5/0
[Cs]
+24.8 +15.0 54 +28 +28 жарко 1014.0 976.9 +30.0
19 18.08 С 1 20 км 3/0
[Ci fib]
+22.7 +14.9 61 +26 +26 жарко 1014.7 977.3
20 18.08 СЗ 1 20 км 1/0
[Ci fib]
+20.0 +15.1 73 +23 +23 комфорт 1015.3 977.6
21 18.08 З 2 н/о н/о +17.8 +14.9 83 +18 +18 1016.0 977.7
00 19.08 З 3 н/о н/о +20.5 +12.5 60 +23 +23 комфорт 1015.6 977.7
03 19.08 ЮЗ 2 н/о н/о +18.9 +12.5 66 +20 +20 1015.5 977.4
04 19.08 ЮЗ 3 н/о н/о +17.9 +12.2 69 +18 +18 1015.9 977.6
05 19.08 СЗ 2 н/о н/о +16.5 +12.5 77 +17 +17 1016.6 978.1
06 19.08 ЮВ 1 20 км ясно +19.4 +13.9 70 +22 +25 комфорт 1015.8 978.0 +15.2
07 19.08 СВ 1 20 км ясно +24.2 +16.3 61 +28 +34 душно 1015.2 978.0
08 19.08 ЮЗ 1 20 км ясно +27.5 +15.3 47 +30 +41 жарко 1014.8 978.0
09 19.08 ЮВ 1 20 км ясно +29.1 +16.9 48 +33 +47 очень
душно
1014.8 978.2
10 19.08 В 2 20 км ясно +29.9 +17.0 46 +34 +48 очень
душно
1014.8 978.3
11 19.08 ЮЗ 3 20 км ясно +31.2 +16.6 42 +35 +48 очень
душно
1014.4 978.1
12 19.08 ЮЗ 3 20 км ясно +31.2 +16.5 41 +34 +46 душно 1014.4 978.1
13 19.08 ЮЗ 4 20 км ясно +31.3 +16.8 42 +35 +43 очень
душно
1014.5 978.2
14 19.08 ЮЗ 3 н/о н/о +31.6 +15.2 37 +34 +34 душно 1014.9 978.4
15 19.08 ЮЗ 3 н/о н/о +31.3 +15.8 39 +34 +34 душно 1015.0 978.4
16 19.08 ЮЗ 4 н/о н/о +30.0 +14.6 39 +32 +32 жарко 1015.1 978.4
17 19.08 ЮЗ 3 н/о н/о +28.2 +14.1 42 +30 +30 жарко 1015.3 978.3
18 19.08 штиль 0 20 км ясно +25.5 +14.4 50 +28 +28 жарко 1015.2 978.2 +31.6
19 19.08 СЗ 2 20 км ясно +23.0 +15.2 61 +27 +27 душно 1016.3 978.9
20 19.08 СЗ 2 20 км ясно +20.0 +15.8 77 +23 +23 комфорт 1017.1 979.3
21 19.08 З 1 н/о н/о +18.5 +14.9 80 +20 +20 1018.3 980.0
00 20.08 СЗ 2 н/о н/о +16.2 +12.8 80 +16 +16 1018.8 980.2
03 20.08 СЗ 2 н/о н/о +15.8 +12.0 78 +16 +16 1019.1 980.4
04 20.08 З 3 н/о н/о +15.6 +11.8 78 +15 +15 1019.5 980.8
05 20.08 СЗ 1 н/о н/о +15.6 +12.0 79 +16 +16 1019.8 981.1
06 20.08 СЗ 1 20 км ясно +18.0 +13.1 73 +19 +22 1019.4 981.3 +15.0
07 20.08 СЗ 2 20 км ясно +20.9 +14.4 66 +24 +30 комфорт 1019.0 981.3
08 20.08 СВ 2 20 км ясно +24.7 +18.0 66 +29 +38 душно 1018.7 981.5
09 20.08 В 1 20 км ясно +25.9 +18.5 64 +31 +45 очень
душно
1018.7 981.6
10 20.08 СВ 1 20 км ясно +27.2 +18.5 59 +32 +49 очень
душно
1018.4 981.5
11 20.08 Ю 1 20 км ясно +28.2 +19.4 59 +34 +52 опасность
солнечного
удара
1017.7 981.0
12 20.08 СВ 2 20 км 1/1 1000 м
[Cu med, cong]
+29.0 +18.3 52 +34 +47 очень
душно
1017.2 980.6
13 20.08 СВ 2 20 км 1/1 1000 м
[Cu med, cong]
+29.5 +18.9 53 +35 +46 очень
душно
1017.0 980.4
14 20.08 СВ 1 н/о н/о +30.1 +19.2 52 +36 +36 очень
душно
1016.9 980.1
15 20.08 СВ 1 н/о н/о +30.0 +18.5 50 +35 +35 очень
душно
1016.8 980.0
16 20.08 СВ 1 н/о н/о +29.4 +20.1 57 +36 +36 очень
душно
1016.7 979.8
17 20.08 С 1 н/о н/о +28.6 +19.9 59 +35 +35 очень
душно
1016.8 979.8
18 20.08 СЗ 1 20 км ясно +25.7 +20.7 74 +32 +32 очень
душно
1016.9 979.9 +29.9
19 20.08 СЗ 1 20 км ясно +23.4 +20.2 82 +31 +31 очень
душно
1017.6 980.3
20 20.08 СЗ 1 20 км ясно +21.8 +20.2 91 +28 +28 душно 1017.9 980.4
21 20.08 СЗ 1 н/о н/о +20.8 +19.3 91 +26 +26 душно 1018.2 980.2
00 21.08 З 3 н/о н/о +20.0 +18.7 92 +23 +23 комфорт 1017.8 979.7
03 21.08 СЗ 1 н/о н/о +18.9 +17.3 90 +21 +21 комфорт 1018.2 980.0
04 21.08 СЗ 1 н/о н/о +18.0 +16.9 93 +19 +19 1018.9 980.5
05 21.08 З 2 н/о н/о +19.0 +16.9 88 +21 +21 комфорт 1019.2 981.0
06 21.08 СЗ 2 20 км 1/0
[Ac trans]
+20.4 +17.3 82 +24 +26 комфорт 1019.5 981.7 +18.0
07 21.08 СЗ 1 15 км 9/9 600 м
[Cu Sc]
+21.4 +18.1 81 +26 +26 душно 1020.8 983.1
08 21.08 В 2 15 км 9/9 600 м
[Cu Sc]
+22.8 +18.3 76 +28 +29 душно 1021.5 984.0
09 21.08 СВ 2 15 км 9/9 600 м
[Cu Sc]
+22.7 +18.2 76 +28 +29 душно 1022.1 984.5
10 21.08 СВ 3 15 км 9/9 600 м
[Cu Sc]
+23.2 +16.8 67 +28 +29 душно 1022.2 984.7
11 21.08 В 3 15 км 9/9 600 м
[Cu Sc]
+23.6 +15.2 59 +26 +28 жарко 1022.2 984.7
12 21.08 В 3 15 км 9/9 600 м
[Cu Sc]
+24.2 +16.1 61 +28 +29 душно 1022.0 984.6
13 21.08 СВ 3 15 км 9/9 600 м
[Cu Sc]
+24.2 +15.4 58 +27 +28 жарко 1022.0 984.6
14 21.08 СВ 3 н/о н/о +23.5 +14.8 58 +26 +26 жарко 1022.5 984.7
15 21.08 В 3 н/о н/о +23.5 +14.0 55 +26 +26 жарко 1022.7 984.9
16 21.08 СВ 2 н/о н/о +23.0 +13.8 56 +26 +26 жарко 1022.9 985.0
17 21.08 СВ 2 н/о н/о +22.2 +13.6 58 +25 +25 комфорт 1023.2 985.2
18 21.08 В 2 15 км 10/10 1000 м
[Sc]
+21.4 +13.5 61 +24 +24 комфорт 1023.6 985.7 +24.4
19 21.08 ЮВ 1 15 км 10/10 1000 м
[Sc]
+20.4 +12.9 62 +24 +24 комфорт 1024.4 986.4
20 21.08 В 1 15 км 10/10 1000 м
[Sc]
+19.7 +14.1 70 +23 +23 комфорт 1024.7 986.6
21 21.08 В 1 н/о н/о +19.5 +12.3 63 +22 +22 комфорт 1025.4 987.0
00 22.08 ЮВ 2 н/о н/о +17.8 +12.8 73 +18 +18 1025.4 986.8
03 22.08 штиль 0 н/о н/о +17.2 +13.2 77 +17 +17 1025.2 986.5
04 22.08 Ю 1 н/о н/о +17.0 +14.0 82 +18 +18 1025.1 986.4
05 22.08 ЮВ 1 н/о н/о +17.0 +13.6 80 +18 +18 1025.2 986.5
06 22.08 ЮВ 1 20 км 10/10 1000 м
[Sc]
+17.6 +13.3 76 +19 +19 1024.8 986.4 +16.6

 

Местоположение метеостанции Огулин (Хорватия): широта 45.27 долгота 15.23 высота над уровнем моря 328 м.

В архиве по умолчанию представлена погода в Огулине за последнюю неделю. Архивные данные за месяц целиком и за предыдущие месяцы, начиная с января 2011 года, Вы можете получить, выбрав интересующий диапазон дат из раскрывающегося списка и нажав кнопку "Ввод!".


*Определитесь, кто Вы:
робот инопланетянин человек

Внимание! Время в таблицах - всемирное. Для получения местного времени необходимо прибавить поправку, которая равна 1 ч.

Смотрите также архив погоды в соседних городах и на ближайших метеорологических станциях:

Погода в Чрномеле (Словения) (34 км)
Погода в Карловаце (Хорватия) (37 км)
Погода в Сене (Хорватия) (40 км)
Погода в Риека аэропорту (Хорватия) (51 км)
Погода в Кочевье (Словения) (52 км)
Погода в Завизани (Хорватия) (54 км)
Погода в Ново-Месте (Словения) (59 км)
Погода в Парке (Хорватия) (60 км)
Погода в Риеке (Хорватия) (61 км)
Погода в Рабе (Хорватия) (68 км)

Пояснения к столбцам:

Ветер - указаны скорость ветра в м/с - средняя за 10 мин, порывы в срок и между сроками (в фигурных скобках) и направление, откуда дует ветер: С - северный, СВ - северо-восточный, В - восточный, ЮВ - юго-восточный, Ю - южный, ЮЗ - юго-западный, З - западный, СЗ - северо-западный.
Видимость - горизонтальная дальность видимости в метрах или километрах. При видимости от 1 до 10 км при отсутствии осадков обычно наблюдается дымка, при ухудшении видимости до 1 км и менее - туман. В сухую погоду видимость может ухудшаться дымом, пылью или мглою.
Явления - указаны атмосферные явления, наблюдавшиеся в срок или в последний час перед сроком; фигурными скобками обозначены явления, наблюдавшиеся между сроками (за 1-3 часа до срока); квадратными скобками обозначены град или гололедные отложения с указанием их диаметра в мм.
Облачность - указаны через наклонную черту общая и нижняя облачность в баллах и высота нижней границы облаков в метрах; квадратными скобками обозначены формы облаков: Ci - перистые, Cs - перисто-слоистые, Cc - перисто-кучевые, Ac - высококучевые, As - высокослоистые, Sc - слоисто-кучевые, Ns - слоисто-дождевые, Cu - кучевые, Cb - кучево-дождевые. Подробнее классификацию облаков см. в Атласе облаков (PDF).
T - Температура воздуха - температура, измеренная на высоте 2 м над землей.
Td - Температура точки росы - температура, при понижении до которой содержащийся в воздухе водяной пар достигнет насыщения.
f - Относительная влажность воздуха - влажноcть воздуха, измеренная на высоте 2 м над землей.
Te - Эффективная температура - температура, которую ощущает одетый по сезону человек в тени. Характеристика душности погоды. При расчете учитывается влияние влажности воздуха и скорости ветра на теплоощущения человека.
Tes - Эффективная температура на солнце - температура, которую ощущает человек, с поправкой на солнечный нагрев. Характеристика знойности погоды. Зависит от высоты солнца над горизонтом, облачности и скорости ветра. Ночью, в пасмурную погоду, а также при ветре 12 м/с и более поправка равна нулю.
P - Атмосферное давление - приведенное к уровню моря атмосферное давление.
Po - Атмосферное давление - измеренное на уровне метеостанции атмосферное давление.
Tmin - Минимальная температура - минимум температуры воздуха на высоте 2 м над землей.
Tmax - Максимальная температура - максимум температуры воздуха на высоте 2 м над землей.
R - Количество осадков - Количество выпавших осадков за период времени, мм. При наведении курсора мыши на число - период времени, за который выпало указанное количество осадков.
R24 - Количество осадков - Количество выпавших осадков за 24 часа, мм.
S - Снежный покров - Высота снежного покрова, см. При наведении курсора мыши на число - состояние снежного покрова и степень покрытия местности в баллах.